DO5DHA-11 Weather Reports


time (UTC)temp
C
wind
direction
speed
KPH
gust
KPH
rain 1hr
cm
rain 24hr
cm
rain mn
cm
humidity
%
barometer
mb
20260506234405 12 180 0.0 0.0 0.00 0.00 0.00 78 1008.9
20260506233905 12 180 0.0 0.0 0.00 0.00 0.00 78 1008.7
20260506233405 12 180 0.0 0.0 0.00 0.00 0.00 78 1008.7
20260506232905 12 180 0.0 0.0 0.00 0.00 0.00 78 1008.7
20260506232405 12 180 0.0 0.0 0.00 0.00 0.00 78 1008.7
20260506231905 12 180 0.0 0.0 0.00 0.00 0.00 78 1008.7
20260506231405 12 180 0.0 0.0 0.00 0.00 0.00 78 1008.5
20260506230905 12 180 0.0 0.0 0.00 0.00 0.00 78 1008.7
20260506230405 12 180 0.0 0.0 0.00 0.00 0.00 78 1008.7
20260506225905 12 180 0.0 0.0 0.00 0.00 0.00 78 1008.7
20260506225405 12 180 0.0 0.0 0.00 0.00 0.00 78 1008.5
20260506224905 12 180 0.0 0.0 0.00 0.00 0.00 77 1008.5
20260506224405 12 180 0.0 0.0 0.00 0.00 0.00 77 1008.5
20260506223905 12 180 0.0 0.0 0.00 0.00 0.00 77 1008.5
20260506223405 12 180 0.0 0.0 0.00 0.00 0.00 77 1008.5
20260506222905 12 180 0.0 0.0 0.00 0.00 0.00 77 1008.4
20260506222405 12 180 0.0 0.0 0.00 0.00 0.00 77 1008.2
20260506221906 12 180 0.0 0.0 0.00 0.00 0.00 77 1008.2
20260506221405 12 180 0.0 0.0 0.00 0.00 0.00 77 1008.2
20260506220905 12 180 0.0 0.0 0.00 0.00 0.00 77 1008.2
20260506220405 12 180 0.0 0.0 0.00 0.00 0.00 77 1008.2
20260506215905 12 180 0.0 0.0 0.00 0.00 0.00 77 1008.0
20260506215405 12 180 0.0 0.0 0.00 0.00 0.00 76 1008.0
20260506214905 12 180 0.0 0.0 0.00 0.00 0.00 76 1008.0
20260506214405 12 180 0.0 0.0 0.00 0.00 0.00 76 1008.0
20260506213905 12 180 0.0 0.0 0.00 0.00 0.00 76 1007.9
20260506213405 12 180 0.0 0.0 0.00 0.00 0.00 75 1007.7
20260506212905 12 180 0.0 0.0 0.00 0.00 0.00 75 1007.7
20260506212405 13 315 0.0 0.0 0.00 0.00 0.00 75 1007.7
20260506211905 13 315 0.0 0.0 0.00 0.00 0.00 75 1007.9
20260506211405 13 337 0.0 0.0 0.00 0.00 0.00 76 1007.7
20260506210905 13 337 0.0 0.0 0.00 0.00 0.00 76 1007.7
20260506210405 13 337 0.0 0.0 0.00 0.00 0.00 75 1007.5
20260506205905 13 337 0.0 0.0 0.00 0.00 0.00 75 1007.5
20260506205405 13 337 0.0 0.0 0.00 0.00 0.00 75 1007.5
20260506204905 13 337 0.0 0.0 0.00 0.00 0.00 75 1007.4
20260506204405 13 337 0.0 0.0 0.00 0.00 0.00 75 1007.4
20260506203905 13 337 0.0 0.0 0.00 0.00 0.00 74 1007.2
20260506203405 13 337 0.0 0.0 0.00 0.00 0.00 74 1007.2
20260506202905 13 337 0.0 0.0 0.00 0.00 0.00 74 1007.0
20260506202405 13 337 0.0 0.0 0.00 0.00 0.00 74 1007.2
20260506201905 13 337 0.0 0.0 0.00 0.00 0.00 73 1007.2
20260506201405 13 337 0.0 0.0 0.00 0.00 0.00 73 1007.0
20260506200905 13 337 0.0 0.0 0.00 0.00 0.00 73 1006.9
20260506200405 13 202 0.0 0.0 0.00 0.00 0.00 73 1007.0
20260506195905 14 202 0.0 0.0 0.00 0.00 0.00 73 1006.9
20260506195405 14 202 0.0 0.0 0.00 0.00 0.00 72 1006.9
20260506194905 14 202 0.0 0.0 0.00 0.00 0.00 72 1006.7
20260506194405 14 202 0.0 0.0 0.00 0.00 0.00 71 1006.7
20260506193905 14 202 0.0 0.0 0.00 0.00 0.00 70 1006.7
20260506193405 15 225 0.0 0.0 0.00 0.00 0.00 69 1006.5
20260506192905 15 180 0.0 0.0 0.00 0.00 0.00 69 1006.4
20260506192405 15 180 0.0 0.0 0.00 0.00 0.00 66 1006.4
20260506191905 15 157 0.0 0.0 0.00 0.00 0.00 66 1006.2
20260506191405 15 202 0.0 0.0 0.00 0.00 0.00 66 1005.9
20260506190905 15 202 0.0 0.0 0.00 0.00 0.00 65 1006.0
20260506190405 15 202 0.0 0.0 0.00 0.00 0.00 65 1006.0
20260506185905 15 202 0.0 0.0 0.00 0.00 0.00 64 1006.0
20260506185405 15 202 0.0 0.0 0.00 0.00 0.00 64 1005.7
20260506184905 15 202 0.0 0.0 0.00 0.00 0.00 64 1005.7
20260506184405 15 202 0.0 0.0 0.00 0.00 0.00 64 1005.7
20260506183905 15 180 0.0 0.0 0.00 0.00 0.00 63 1005.5
20260506183405 15 180 0.0 0.0 0.00 0.00 0.00 63 1005.4
20260506182905 16 202 0.0 0.0 0.00 0.00 0.00 63 1005.5
20260506182405 16 202 0.0 0.0 0.00 0.00 0.00 63 1005.5
20260506181905 16 225 0.0 0.0 0.00 0.00 0.00 63 1005.5
20260506181405 16 225 0.0 0.0 0.00 0.00 0.00 62 1005.4
20260506180905 16 225 0.0 0.0 0.00 0.00 0.00 62 1005.4
20260506180405 16 225 0.0 0.0 0.00 0.00 0.00 62 1005.4
20260506175905 16 225 0.0 0.0 0.00 0.00 0.00 61 1005.4
20260506175405 16 202 0.0 0.0 0.00 0.00 0.00 61 1005.2
20260506174905 16 225 0.0 0.0 0.00 0.00 0.00 60 1005.2
20260506174405 16 225 0.0 0.0 0.00 0.00 0.00 60 1005.2
20260506173905 16 180 0.0 0.0 0.00 0.00 0.00 60 1005.0
20260506173405 16 202 0.0 0.0 0.00 0.00 0.00 59 1005.0
20260506172905 17 180 0.0 0.0 0.00 0.00 0.00 59 1004.9
20260506172405 17 202 0.0 0.0 0.00 0.00 0.00 59 1004.7
20260506171905 17 225 0.0 0.0 0.00 0.00 0.00 58 1004.9
20260506171405 17 180 0.0 0.0 0.00 0.00 0.00 58 1004.7
20260506170905 17 180 4.8 0.0 0.00 0.00 0.00 57 1004.7
20260506170405 17 180 0.0 0.0 0.00 0.00 0.00 57 1004.7
20260506165905 17 180 0.0 0.0 0.00 0.00 0.00 57 1004.7
20260506165405 17 180 0.0 0.0 0.00 0.00 0.00 57 1004.7
20260506164905 17 270 0.0 0.0 0.00 0.00 0.00 57 1004.7
20260506164405 17 225 0.0 0.0 0.00 0.00 0.00 57 1004.7
20260506163905 17 135 9.7 0.0 0.00 0.00 0.00 56 1004.7
20260506163405 17 202 0.0 0.0 0.00 0.00 0.00 56 1004.7
20260506162905 18 247 0.0 0.0 0.00 0.00 0.00 56 1004.7
20260506162405 18 270 0.0 0.0 0.00 0.00 0.00 55 1004.7
20260506161905 18 180 0.0 0.0 0.00 0.00 0.00 55 1004.7
20260506161405 18 202 0.0 0.0 0.00 0.00 0.00 55 1004.7
20260506160905 18 225 0.0 0.0 0.00 0.00 0.00 54 1004.7
20260506160405 18 270 0.0 0.0 0.00 0.00 0.00 53 1004.7
20260506155905 18 202 0.0 0.0 0.00 0.00 0.00 53 1004.7
20260506155405 19 180 0.0 0.0 0.00 0.00 0.00 52 1004.7
20260506154905 19 180 4.8 0.0 0.00 0.00 0.00 52 1004.7
20260506154405 19 225 0.0 0.0 0.00 0.00 0.00 52 1004.7
20260506153905 20 202 0.0 0.0 0.00 0.00 0.00 51 1004.5
20260506153405 20 180 0.0 0.0 0.00 0.00 0.00 51 1004.5
20260506152905 20 202 0.0 0.0 0.00 0.00 0.00 50 1004.5
20260506152405 20 225 4.8 0.0 0.00 0.00 0.00 50 1004.5
20260506151905 20 202 0.0 0.0 0.00 0.00 0.00 50 1004.5
20260506151405 20 225 4.8 0.0 0.00 0.00 0.00 50 1004.5
20260506150905 21 202 8.0 0.0 0.00 0.00 0.00 49 1004.5
20260506150405 21 225 0.0 0.0 0.00 0.00 0.00 49 1004.4
20260506145905 21 225 0.0 0.0 0.00 0.00 0.00 49 1004.4
20260506145405 21 225 0.0 0.0 0.00 0.00 0.00 49 1004.4
20260506144905 21 247 9.7 0.0 0.00 0.00 0.00 50 1004.2
20260506144405 21 225 0.0 0.0 0.00 0.00 0.00 49 1004.2
20260506143905 21 180 11.3 0.0 0.00 0.00 0.00 49 1004.4
20260506143405 21 157 0.0 0.0 0.00 0.00 0.00 49 1004.4
20260506142905 21 180 0.0 0.0 0.00 0.00 0.00 49 1004.2
20260506142405 21 202 0.0 0.0 0.00 0.00 0.00 49 1004.2
20260506141905 21 180 0.0 0.0 0.00 0.00 0.00 50 1004.2
20260506141405 21 225 0.0 0.0 0.00 0.00 0.00 51 1004.4
20260506140905 21 202 0.0 0.0 0.00 0.00 0.00 51 1004.4
20260506140405 20 270 0.0 0.0 0.00 0.00 0.00 52 1004.2
20260506135905 21 225 0.0 0.0 0.00 0.00 0.00 52 1004.2
20260506135405 20 180 0.0 0.0 0.00 0.00 0.00 52 1004.4
20260506134905 20 225 0.0 0.0 0.00 0.00 0.00 52 1004.2
20260506134405 20 225 0.0 0.0 0.00 0.00 0.00 54 1004.2
20260506133905 20 180 0.0 0.0 0.00 0.00 0.00 54 1004.4
20260506133405 20 180 0.0 0.0 0.00 0.00 0.00 54 1004.5
20260506132905 20 247 0.0 0.0 0.00 0.00 0.00 55 1004.4
20260506132405 19 180 6.4 0.0 0.00 0.00 0.00 55 1004.2
20260506131905 19 225 9.7 0.0 0.00 0.00 0.00 55 1004.2
20260506131405 19 180 0.0 0.0 0.00 0.00 0.00 56 1004.5
20260506130905 18 180 0.0 0.0 0.00 0.00 0.00 56 1004.5
20260506130405 18 225 8.0 0.0 0.00 0.00 0.00 57 1004.7
20260506125905 18 225 0.0 0.0 0.00 0.00 0.00 57 1004.7
20260506125405 18 180 0.0 0.0 0.00 0.00 0.00 57 1004.5
20260506124905 18 247 0.0 0.0 0.00 0.00 0.00 58 1004.5
20260506124405 18 225 4.8 0.0 0.00 0.00 0.00 58 1004.7
20260506123905 18 225 0.0 0.0 0.00 0.00 0.00 59 1004.5
20260506123405 18 247 0.0 0.0 0.00 0.00 0.00 58 1004.7
20260506122905 18 247 8.0 0.0 0.00 0.00 0.00 58 1004.7
20260506122405 18 180 3.2 0.0 0.00 0.00 0.00 58 1004.7
20260506121905 19 202 6.4 0.0 0.00 0.00 0.00 58 1004.5
20260506121405 19 157 0.0 0.0 0.00 0.00 0.00 58 1004.7
20260506120905 19 225 0.0 0.0 0.00 0.00 0.00 58 1004.7
20260506120405 19 202 0.0 0.0 0.00 0.00 0.00 58 1004.7
20260506115905 19 225 0.0 0.0 0.00 0.00 0.00 58 1004.7
20260506115405 19 225 9.7 0.0 0.00 0.00 0.00 59 1004.7
20260506114905 19 180 0.0 0.0 0.00 0.00 0.00 59 1004.7
20260506114405 19 202 0.0 0.0 0.00 0.00 0.00 59 1004.7
20260506113905 18 180 0.0 0.0 0.00 0.00 0.00 61 1004.9
20260506113405 18 180 4.8 0.0 0.00 0.00 0.00 61 1004.9
20260506112905 18 180 0.0 0.0 0.00 0.00 0.00 61 1005.0
20260506112405 18 225 6.4 0.0 0.00 0.00 0.00 62 1004.7
20260506111905 18 225 9.7 0.0 0.00 0.00 0.00 62 1004.9
20260506111405 18 202 0.0 0.0 0.00 0.00 0.00 63 1005.0
20260506110905 17 202 6.4 0.0 0.00 0.00 0.00 64 1005.0
20260506110405 17 180 0.0 0.0 0.00 0.00 0.00 64 1005.0
20260506105905 17 157 0.0 0.0 0.00 0.00 0.00 65 1005.0
20260506105405 17 180 0.0 0.0 0.00 0.00 0.00 66 1005.0
20260506104905 17 225 0.0 0.0 0.00 0.00 0.00 66 1005.0
20260506104405 16 202 0.0 0.0 0.00 0.00 0.00 67 1005.2
20260506103905 16 180 0.0 0.0 0.00 0.00 0.00 66 1005.2
20260506103405 16 180 0.0 0.0 0.00 0.00 0.00 68 1004.9
20260506102905 16 225 0.0 0.0 0.00 0.00 0.00 68 1004.7
20260506102405 16 180 0.0 0.0 0.00 0.00 0.00 68 1005.0
20260506101905 16 180 0.0 0.0 0.00 0.00 0.00 68 1005.0
20260506101405 16 180 0.0 0.0 0.00 0.00 0.00 69 1005.0
20260506100905 16 202 4.8 0.0 0.00 0.00 0.00 71 1005.0
20260506100405 16 225 8.0 0.0 0.00 0.00 0.00 71 1005.0
20260506095905 15 180 0.0 0.0 0.00 0.00 0.00 71 1005.2
20260506095405 15 180 0.0 0.0 0.00 0.00 0.00 72 1005.2
20260506094905 15 225 0.0 0.0 0.00 0.00 0.00 72 1005.2
20260506094405 15 157 0.0 0.0 0.00 0.00 0.00 72 1005.2
20260506093905 14 135 0.0 0.0 0.00 0.00 0.00 72 1005.2
20260506093405 14 202 0.0 0.0 0.00 0.00 0.00 72 1005.2
20260506092905 14 202 0.0 0.0 0.00 0.00 0.00 73 1005.2
20260506092405 14 225 0.0 0.0 0.00 0.00 0.00 73 1005.2
20260506091905 14 202 0.0 0.0 0.00 0.00 0.00 73 1005.0
20260506091405 14 202 0.0 0.0 0.00 0.00 0.00 74 1005.2
20260506090905 14 180 0.0 0.0 0.00 0.00 0.00 74 1005.0
20260506090405 14 202 0.0 0.0 0.00 0.00 0.00 74 1005.2
20260506085905 14 225 0.0 0.0 0.00 0.00 0.00 74 1005.0
20260506085405 14 180 0.0 0.0 0.00 0.00 0.00 73 1005.0
20260506084905 14 180 0.0 0.0 0.00 0.00 0.00 73 1005.0
20260506084405 14 180 0.0 0.0 0.00 0.00 0.00 73 1005.2
20260506083905 14 180 0.0 0.0 0.00 0.00 0.00 74 1004.9
20260506083405 14 247 0.0 0.0 0.00 0.00 0.00 74 1004.9
20260506082905 14 180 0.0 0.0 0.00 0.00 0.00 74 1004.7
20260506082405 14 202 0.0 0.0 0.00 0.00 0.00 74 1004.7
20260506081905 14 180 0.0 0.0 0.00 0.00 0.00 74 1004.7
20260506081405 14 180 0.0 0.0 0.00 0.00 0.00 74 1004.7
20260506080905 13 202 0.0 0.0 0.00 0.00 0.00 75 1004.5
20260506080405 13 225 3.2 0.0 0.00 0.00 0.00 75 1004.5
20260506073405 12 157 0.0 0.0 0.00 0.00 0.00 77 1005.0
20260506072905 12 202 0.0 0.0 0.00 0.00 0.00 77 1005.0
20260506072405 12 202 0.0 0.0 0.00 0.00 0.00 77 1005.0
20260506071905 12 202 0.0 0.0 0.00 0.00 0.00 77 1005.0
20260506071405 12 202 0.0 0.0 0.00 0.00 0.00 77 1005.0
20260506070905 12 180 0.0 0.0 0.00 0.00 0.00 78 1005.0
20260506070405 12 157 0.0 0.0 0.00 0.00 0.00 78 1005.0
20260506062405 13 202 0.0 0.0 0.00 0.00 0.00 80 1004.5
20260506061905 13 180 0.0 0.0 0.00 0.00 0.00 80 1004.7
20260506061405 12 180 12.9 0.0 0.00 0.00 0.00 80 1004.7
20260506060905 12 180 0.0 0.0 0.00 0.00 0.00 81 1004.9
20260506060405 12 180 14.5 0.0 0.00 0.00 0.00 81 1004.7
20260506051405 11 180 0.0 0.0 0.00 0.00 0.00 82 1004.7
20260506050905 11 180 0.0 0.0 0.00 0.00 0.00 82 1005.0
20260506050405 11 180 0.0 0.0 0.00 0.00 0.00 82 1005.0
20260506044905 11 180 0.0 0.0 0.00 0.00 0.00 82 1004.9
20260506044405 11 180 0.0 0.0 0.00 0.00 0.00 82 1004.7
20260506043905 11 180 0.0 0.0 0.00 0.00 0.00 82 1004.7
20260506043405 11 180 0.0 0.0 0.00 0.00 0.00 82 1004.7
20260506042905 11 180 0.0 0.0 0.00 0.00 0.00 82 1004.7
20260506042405 11 180 0.0 0.0 0.00 0.00 0.00 82 1004.7
20260506041905 11 180 0.0 0.0 0.00 0.00 0.00 82 1004.7
20260506041405 11 180 0.0 0.0 0.00 0.00 0.00 82 1004.7
20260506040905 11 157 0.0 0.0 0.00 0.00 0.00 82 1004.7
20260506040405 11 157 0.0 0.0 0.00 0.00 0.00 82 1004.9
20260506035905 11 157 0.0 0.0 0.00 0.00 0.00 82 1005.0
20260506035405 12 157 0.0 0.0 0.00 0.00 0.00 82 1005.0
20260506034905 12 157 0.0 0.0 0.00 0.00 0.00 82 1005.0
20260506034405 12 157 0.0 0.0 0.00 0.00 0.00 82 1005.0
20260506033905 12 157 0.0 0.0 0.00 0.00 0.00 82 1005.0
20260506033405 12 157 0.0 0.0 0.00 0.00 0.00 82 1005.0
20260506032905 12 157 0.0 0.0 0.00 0.00 0.00 82 1005.0
20260506032405 12 157 0.0 0.0 0.00 0.00 0.00 82 1005.0
20260506031905 12 157 0.0 0.0 0.00 0.00 0.00 82 1005.0
20260506031405 12 157 0.0 0.0 0.00 0.00 0.00 82 1005.2
20260506030905 12 157 0.0 0.0 0.00 0.00 0.00 82 1005.2
20260506030405 12 157 0.0 0.0 0.00 0.00 0.00 82 1005.5
20260506025905 12 157 0.0 0.0 0.00 0.00 0.00 82 1005.5
20260506025405 12 157 0.0 0.0 0.00 0.00 0.00 82 1005.5
20260506024905 12 157 0.0 0.0 0.00 0.00 0.00 82 1005.5
20260506024405 12 157 0.0 0.0 0.00 0.00 0.00 82 1005.5
20260506023905 12 157 0.0 0.0 0.00 0.00 0.00 82 1005.4
20260506023405 12 157 0.0 0.0 0.00 0.00 0.00 82 1005.5
20260506022905 12 157 0.0 0.0 0.00 0.00 0.00 82 1005.5
20260506022405 12 157 0.0 0.0 0.00 0.00 0.00 82 1005.5
20260506021905 12 157 0.0 0.0 0.00 0.00 0.00 82 1005.4
20260506021405 12 157 0.0 0.0 0.00 0.00 0.00 82 1005.4
20260506020905 12 157 0.0 0.0 0.00 0.00 0.00 82 1005.4
20260506020405 12 157 0.0 0.0 0.00 0.00 0.00 82 1005.4
20260506015905 12 157 0.0 0.0 0.00 0.00 0.00 82 1005.2
20260506015405 12 157 0.0 0.0 0.00 0.00 0.00 82 1005.2
20260506014905 12 157 0.0 0.0 0.00 0.00 0.00 82 1005.2
20260506014405 12 157 0.0 0.0 0.00 0.00 0.00 82 1005.2
20260506013905 12 157 0.0 0.0 0.00 0.00 0.00 82 1005.2
20260506013405 12 157 0.0 0.0 0.00 0.00 0.00 82 1005.4
20260506012905 12 157 0.0 0.0 0.00 0.00 0.00 82 1005.5
20260506012405 12 157 0.0 0.0 0.00 0.00 0.00 81 1005.5
20260506011905 12 157 0.0 0.0 0.00 0.00 0.00 81 1005.5
20260506011405 12 157 0.0 0.0 0.00 0.00 0.00 81 1005.5
20260506010905 12 157 0.0 0.0 0.00 0.00 0.00 81 1005.5
20260506010405 12 157 0.0 0.0 0.00 0.00 0.00 81 1005.7
20260506005905 12 157 0.0 0.0 0.00 0.00 0.00 81 1005.5
20260506005405 12 157 0.0 0.0 0.00 0.00 0.00 81 1005.5
20260506004905 13 157 0.0 0.0 0.00 0.00 0.00 81 1005.7
20260506004405 13 157 0.0 0.0 0.00 0.00 0.00 81 1005.7
20260506003905 13 157 0.0 0.0 0.00 0.00 0.00 81 1005.7
20260506003405 13 157 0.0 0.0 0.00 0.00 0.00 81 1005.9
20260506002905 13 157 0.0 0.0 0.00 0.00 0.00 81 1006.0
20260506002405 13 157 0.0 0.0 0.00 0.00 0.00 81 1006.0
20260506001905 13 157 0.0 0.0 0.00 0.00 0.00 80 1006.0
20260506001405 13 157 0.0 0.0 0.00 0.00 0.00 81 1006.0
20260506000905 13 202 0.0 0.0 0.00 0.00 0.00 81 1006.0
20260506000405 13 180 0.0 0.0 0.00 0.00 0.00 81 1006.0
20260505235905 13 180 0.0 0.0 0.00 0.00 0.00 81 1006.0
20260505235405 13 180 0.0 0.0 0.00 0.00 0.00 81 1006.0
20260505234905 13 180 0.0 0.0 0.00 0.00 0.00 80 1006.0